Terug naar catalogus

STARLINK-4445

ActiefCommunicatieSSO
NORAD 53474·PAYLOAD·🇺🇸 United States

Gelanceerd Aug 12, 2022 vanaf Vandenberg Space Force Base

Loading…

Volgende Passages (komende 24 uur)

TLE

VersSource: CelesTrak SupGP

Epoch: Sep 14, 2026, 22:08 UTC

1 53474C 22099K   26257.92270833  .00589190  00000+0  33695-1 0  2576
2 53474  97.2858  12.0666 0001735  89.4420 229.5591 15.12461891    10

Volg STARLINK-4445 in realtime met AllMySat

Download on the App Store